Flag for Canada Weather past 2 weeks in Saint John, New Brunswick, Canada

Now
66 °F

Passing clouds.


Feels Like: 66 °F
Forecast: 57 / 75 °F
Wind: 12 mph from Northwest

Location: Saint John

Current Time: Aug 28, 2015 at 10:52:05 AM

Latest Report: Aug 28, 2015 at 10:00 AM


Visibility: 15 mi

Pressure: 30.05 "Hg

Humidity: 68%

Dew point: 55 °F

Location of Saint JohnLocation

Historic Weather in Saint John — Graph

°F

Saint John temperature yesterday

Maximum temperature yesterday: 77 °F (at 5:00 PM)
Minimum temperature yesterday: 63 °F (at 12:00 AM)
Average temperature yesterday: 67 °F

Past Weeks' High & Low Weather Summary

 TemperatureHumidityPressure
High81 °F (Aug 16, 1:00 PM)100% (Aug 13, 9:00 AM)30.23 "Hg (Aug 13, 9:00 AM)
Low52 °F (Aug 14, 7:00 AM)54% (Aug 14, 1:00 PM)29.84 "Hg (Aug 27, 4:00 PM)
Average67 °F91%30.05 "Hg
* Reported Aug 13 9:00 AM — Aug 28 9:00 AM, Saint John, Weather by CustomWeather, © 2015

Note: Actual official high and low records may vary slightly from our data, if they occured in-between our weather recording intervals... More about our weather records

Advertising

Saint John weather history for previous 24 hours

 ConditionsComfort  
Time TempWeatherWind HumidityBarometerVisibility
9:00 AM
Fri, Aug 28
63 °FPassing clouds.13 mph77%30.04 "Hg15 mi
8:00 AM61 °FPassing clouds.8 mph83%30.03 "Hg15 mi
7:00 AM57 °FClear.5 mph94%30.01 "Hg15 mi
6:00 AM57 °FClear.6 mph94%29.99 "Hg15 mi
5:00 AM57 °FClear.5 mph94%29.98 "Hg15 mi
4:00 AM59 °FClear.6 mph94%29.96 "Hg15 mi
3:00 AM57 °FClear.5 mph94%29.96 "Hg15 mi
2:00 AM59 °FClear.5 mph94%29.95 "Hg15 mi
1:00 AM57 °FClear.6 mph100%29.94 "Hg15 mi
12:00 AM57 °FClear.No wind94%29.94 "Hg15 mi
11:00 PM
Thu, Aug 27
63 °FPassing clouds.3 mph83%29.93 "Hg15 mi
10:00 PM63 °FPassing clouds.2 mph88%29.92 "Hg15 mi
9:00 PM63 °FPassing clouds.3 mph94%29.90 "Hg15 mi
8:00 PM66 °FPassing clouds.5 mph88%29.87 "Hg15 mi
7:00 PM68 °FScattered clouds.8 mph83%29.86 "Hg15 mi
6:00 PM73 °FPassing clouds.10 mph69%29.85 "Hg15 mi
5:00 PM77 °FScattered clouds.7 mph57%29.85 "Hg15 mi
4:00 PM75 °FScattered clouds.8 mph69%29.84 "Hg15 mi
3:00 PM75 °FBroken clouds.12 mph65%29.85 "Hg15 mi
2:00 PM75 °FPartly sunny.6 mph74%29.85 "Hg15 mi
1:00 PM72 °FPartly sunny.6 mph83%29.88 "Hg15 mi
12:00 PM70 °FMore clouds than sun.5 mph88%29.88 "Hg10 mi
11:00 AM68 °FFog.No wind94%29.89 "Hg6 mi
10:00 AM66 °FFog.3 mph100%29.90 "Hg3 mi
Weather by CustomWeather, © 2015

See weather overviewHow to use our weather pages